TimeCDT,TemperatureF,Dew PointF,Humidity,Sea Level PressureIn,VisibilityMPH,Wind Direction,Wind SpeedMPH,Gust SpeedMPH,PrecipitationIn,Events,Conditions,WindDirDegrees,DateUTC
12:53 AM,77.0,72.0,84,30.03,10.0,ENE,3.5,-,N/A,,Clear,60,2013-08-23 05:53:00
1:53 AM,77.0,72.0,84,30.00,10.0,East,4.6,-,N/A,,Clear,80,2013-08-23 06:53:00
2:53 AM,75.9,72.0,87,30.00,10.0,ENE,4.6,-,N/A,,Clear,70,2013-08-23 07:53:00
3:53 AM,75.0,72.0,90,29.99,10.0,NE,5.8,-,N/A,,Clear,50,2013-08-23 08:53:00
4:53 AM,75.0,72.0,90,29.99,10.0,ENE,5.8,-,N/A,,Clear,70,2013-08-23 09:53:00
5:30 AM,75.2,71.6,89,30.00,10.0,ENE,6.9,-,N/A,,Partly Cloudy,60,2013-08-23 10:30:00
5:53 AM,75.0,72.0,90,30.00,10.0,NE,6.9,-,N/A,,Mostly Cloudy,50,2013-08-23 10:53:00
6:08 AM,73.4,71.6,94,30.00,10.0,ENE,6.9,-,N/A,,Mostly Cloudy,70,2013-08-23 11:08:00
6:53 AM,75.0,72.0,90,30.01,10.0,ENE,8.1,-,N/A,,Overcast,70,2013-08-23 11:53:00
7:53 AM,78.1,73.0,84,30.00,10.0,ENE,8.1,-,N/A,,Clear,70,2013-08-23 12:53:00
8:53 AM,78.1,73.0,84,30.01,10.0,NE,6.9,-,N/A,,Clear,50,2013-08-23 13:53:00
9:53 AM,80.1,73.9,81,30.04,10.0,ENE,5.8,-,N/A,,Mostly Cloudy,60,2013-08-23 14:53:00
10:06 AM,80.6,73.4,79,30.04,10.0,ENE,5.8,-,N/A,,Mostly Cloudy,70,2013-08-23 15:06:00
10:53 AM,82.0,75.0,79,30.04,10.0,NE,4.6,-,N/A,,Overcast,50,2013-08-23 15:53:00
11:02 AM,82.4,75.2,79,30.05,10.0,ENE,4.6,-,N/A,,Mostly Cloudy,60,2013-08-23 16:02:00
11:53 AM,82.0,75.0,79,30.04,10.0,East,5.8,-,N/A,,Mostly Cloudy,80,2013-08-23 16:53:00
12:53 PM,82.0,75.0,79,30.01,10.0,East,8.1,-,N/A,,Clear,80,2013-08-23 17:53:00
1:53 PM,82.0,75.0,79,30.01,10.0,East,5.8,-,N/A,,Clear,90,2013-08-23 18:53:00
2:53 PM,82.0,75.0,79,30.01,10.0,ENE,3.5,-,N/A,,Clear,60,2013-08-23 19:53:00
3:19 PM,82.4,75.2,79,30.01,10.0,SE,8.1,-,N/A,,Mostly Cloudy,140,2013-08-23 20:19:00
3:42 PM,78.8,71.6,78,30.01,10.0,South,11.5,20.7,N/A,Thunderstorm,Overcast,190,2013-08-23 20:42:00
3:49 PM,78.8,71.6,78,30.01,10.0,South,9.2,19.6,N/A,Thunderstorm,Overcast,180,2013-08-23 20:49:00
3:53 PM,78.1,72.0,81,30.01,10.0,South,8.1,19.6,0.00,Rain-Thunderstorm,Light Rain,190,2013-08-23 20:53:00
4:46 PM,78.8,73.4,83,29.99,10.0,Calm,Calm,-,0.01,Rain-Thunderstorm,Light Rain,0,2013-08-23 21:46:00
4:53 PM,78.1,73.0,84,29.99,10.0,Calm,Calm,-,0.01,Rain-Thunderstorm,Light Rain,0,2013-08-23 21:53:00
4:58 PM,78.8,73.4,83,29.98,10.0,Calm,Calm,-,0.00,Rain,Light Rain,0,2013-08-23 21:58:00
5:09 PM,77.0,73.4,89,29.97,8.0,NNE,3.5,-,0.01,Rain,Rain,30,2013-08-23 22:09:00
5:53 PM,77.0,73.9,90,29.95,10.0,North,4.6,-,0.03,Rain,Light Rain,350,2013-08-23 22:53:00
6:53 PM,75.9,73.9,94,29.97,10.0,ENE,3.5,-,0.01,,Clear,70,2013-08-23 23:53:00
7:39 PM,75.2,73.4,94,29.98,10.0,East,4.6,-,N/A,,Partly Cloudy,100,2013-08-24 00:39:00
7:53 PM,75.9,73.0,91,29.99,10.0,East,6.9,-,N/A,,Clear,100,2013-08-24 00:53:00
8:53 PM,75.0,72.0,90,30.01,10.0,East,3.5,-,N/A,,Clear,90,2013-08-24 01:53:00
9:53 PM,75.0,72.0,90,30.02,10.0,ENE,4.6,-,N/A,,Clear,70,2013-08-24 02:53:00
10:29 PM,75.2,73.4,94,30.04,10.0,NE,5.8,-,N/A,,Mostly Cloudy,50,2013-08-24 03:29:00
10:46 PM,75.2,73.4,94,30.04,10.0,East,3.5,-,N/A,,Scattered Clouds,80,2013-08-24 03:46:00
10:53 PM,75.0,73.0,94,30.04,10.0,East,4.6,-,N/A,,Mostly Cloudy,90,2013-08-24 03:53:00
11:53 PM,75.9,73.0,91,30.03,10.0,Calm,Calm,-,N/A,,Clear,0,2013-08-24 04:53:00